Location: *
(43.0409°N, 0.1694°E)
Time: 21:57:22
(UTC+00:00)

CZ-2D R/B - Pass Details

Date: 03 October 2023
Orbit: 790 x 844 km, 98.8° (Epoch: 05 December)

Event Time Altitude Azimuth Distance (km) Brightness Sun altitude
Rises 02:29:51 0° 7° (N) 3,387 5.9 -37.0°
Reaches altitude 10° 02:32:18 10° 2° (N) 2,442 4.9 -36.6°
Enters shadow 02:33:32 17° 356° (N) 1,993 4.4 -36.4°
